Temperature
19 19 19 19 19 19 19 19 19 19 18 18 18 18 18 18 18 17 17 17 17 17 17 17 17 17 17 17 17 16 16 16 17 17 16 16 15 15 15 15 15 15 15
19 19 19 19 19 19 19 19 19 19 18 18 18 18 18 18 17 17 17 17 17 17 17 17 17 17 16 16 16 16 16 16 16 16 16 16 15 15 15 15 15 15 15
19 19 19 18 18 18 18 18 18 18 18 18 18 18 18 18 17 17 17 17 17 17 17 17 17 16 16 16 16 16 16 16 16 16 16 15 15 15 15 15 14 14 14
19 19 18 18 18 18 18 18 18 18 18 18 18 18 18 17 17 17 17 17 17 16 16 16 16 16 16 16 16 16 16 16 15 15 15 15 15 15 14 14 15 14 14
18 18 18 18 18 18 18 18 18 18 18 18 18 18 17 17 17 17 17 17 16 16 16 16 16 16 16 16 16 16 16 15 15 15 15 15 15 14 14 14 14 14 14
18 18 18 18 18 18 18 18 17 17 17 17 17 17 17 17 17 17 17 16 16 16 16 16 16 16 16 16 16 16 15 15 15 15 15 14 14 14 14 14 14 14 14
17 17 17 17 17 17 17 17 17 17 17 17 17 17 17 17 17 17 17 16 16 16 16 16 15 15 15 15 15 15 15 15 15 14 14 14 14 14 14 14 13 13 13
17 17 17 17 17 17 17 16 16 17 17 17 17 17 17 17 17 17 17 16 16 16 15 15 15 15 15 15 15 14 14 14 14 14 14 14 14 14 14 13 13 13 13
17 17 17 17 17 16 16 16 16 16 16 16 16 16 16 16 16 16 16 16 15 15 15 15 15 15 15 15 14 14 14 14 14 14 14 14 14 14 13 13 13 13 13
16 16 16 16 16 16 16 16 16 16 16 16 16 15 15 16 16 16 16 15 15 15 14 14 14 14 14 14 14 13 13 13 13 13 13 13 13 13 13 13 13 13 13
16 16 16 16 16 16 16 15 15 15 15 15 15 15 15 15 15 15 15 15 15 14 14 14 14 14 14 14 13 13 13 13 13 13 13 13 13 12 12 12 12 12 12
15 15 15 16 15 15 15 15 15 15 15 15 15 15 15 15 15 15 15 15 14 14 14 14 14 14 13 13 13 13 13 13 12 12 12 12 12 12 12 12 12 12 12
15 15 15 15 15 15 15 15 14 14 14 14 14 14 14 14 14 14 14 14 14 13 13 13 13 13 13 13 13 12 12 12 12 12 12 12 12 11 11 11 11 11 11
15 15 15 15 15 15 14 14 14 14 14 14 14 14 14 14 14 14 13 13 13 13 13 12 12 12 12 12 12 12 12 12 12 12 12 11 11 11 11 11 11 11 11
15 15 15 15 14 14 14 14 14 14 14 14 13 13 13 13 13 13 13 13 13 12 12 12 12 12 12 12 11 11 11 11 11 11 11 11 11 11 11 11 10 11 11
14 14 14 14 14 14 14 14 14 13 13 13 13 13 13 13 13 13 13 12 12 12 12 11 12 12 11 11 11 11 11 11 11 11 11 11 11 11 11 10 10 10 10
14 14 14 14 13 13 13 13 13 13 13 13 13 12 12 12 12 12 12 12 12 12 11 11 11 11 11 11 11 11 11 11 11 10 10 10 10 10 10 10 10 10 10
13 13 13 13 13 13 13 13 12 12 12 12 12 12 12 12 12 12 12 11 11 11 11 11 11 11 10 10 10 10 10 10 10 10 10 10 10 10 10 10 10 10 10
13 13 13 13 13 13 12 12 12 12 12 12 12 12 12 11 11 11 11 11 11 11 11 10 10 10 10 10 10 10 10 10 10 10 10 9 10 9 9 9 10 9 9
12 12 12 12 12 12 12 12 12 12 12 12 11 11 11 11 11 11 11 10 11 10 10 10 10 10 10 10 10 10 10 9 9 9 9 9 9 9 9 9 9 9 9
12 12 12 12 12 12 12 12 12 11 11 11 11 11 11 11 11 10 10 10 10 10 10 10 10 10 10 10 9 9 9 9 9 9 9 9 9 9 9 9 9 9 9
12 12 12 12 11 11 11 11 11 11 11 11 11 11 11 11 11 10 10 10 10 10 10 10 9 9 9 9 9 9 9 9 9 9 9 9 9 9 9 9 9 9 9
12 12 11 11 11 11 11 11 11 11 11 11 11 11 10 10 10 10 10 10 10 9 9 9 9 9 9 9 9 9 9 9 9 9 9 9 9 9 9 9 9 9 9
11 11 11 11 11 11 11 11 11 11 11 10 10 10 10 10 10 10 9 9 9 9 9 9 9 9 9 9 9 9 9 9 8 8 8 8 8 8 8 8 8 8 8
11 11 11 11 11 11 10 10 10 10 10 10 10 10 10 10 10 9 9 9 9 9 9 9 9 9 9 9 9 8 8 8 8 8 8 8 8 8 8 8 8 8 8
11 11 11 10 10 10 10 10 10 10 10 10 10 10 10 10 9 9 9 9 9 9 8 8 8 8 8 8 8 8 8 8 8 8 8 8 8 8 8 8 8 8 8
Wind_Speed
8 8 9 9 9 10 9 10 9 8 8 8 8 8 8 8 8 8 8 7 8 8 7 7 7 7 6 5 5 6 6 6 6 5 4 3 4 5 3 4 5 5 4
7 8 9 9 9 10 10 10 10 10 10 9 9 9 9 9 8 9 9 8 9 8 8 7 8 6 7 7 6 7 6 5 6 6 5 5 5 5 4 5 5 5 4
5 7 8 8 9 10 10 10 10 10 10 9 9 10 9 9 9 9 9 9 8 8 8 8 7 7 7 6 7 7 6 6 6 6 6 4 5 4 4 5 5 4 5
5 6 6 7 8 9 9 9 9 9 10 10 10 10 9 9 9 9 9 8 9 8 8 8 8 8 8 7 7 7 6 6 6 6 5 5 4 4 5 5 5 4 5
5 6 6 7 7 8 8 9 9 9 10 9 10 9 10 9 8 9 8 8 8 8 8 7 7 6 6 6 6 6 6 6 6 6 6 5 5 5 5 5 5 4 4
5 5 5 5 6 7 8 8 8 9 9 8 9 9 9 8 5 7 8 8 7 7 7 7 7 7 5 5 5 5 6 7 7 6 6 6 6 6 5 5 5 5 4
5 5 4 5 5 6 7 7 8 8 8 8 8 8 7 6 5 6 8 7 7 6 6 6 6 4 4 5 5 6 6 5 6 7 8 7 6 5 5 6 5 5 5
4 4 4 5 5 5 5 6 6 6 7 6 6 6 6 5 5 6 7 7 6 6 5 5 5 4 3 3 4 4 4 4 4 5 5 6 5 4 5 6 5 5 5
4 4 4 4 4 5 5 6 6 5 5 6 5 5 5 4 4 5 5 5 5 5 5 5 5 5 2 3 4 4 3 3 1 1 1 1 1 1 2 3 4 4 4
4 4 4 4 4 5 5 5 5 4 5 5 4 4 5 4 4 5 6 5 5 5 4 4 4 3 3 4 5 4 4 3 2 2 2 3 3 3 5 4 4 4 3
3 3 3 4 4 4 4 4 4 4 4 4 4 4 4 4 5 6 7 5 5 5 4 4 3 5 4 4 4 4 3 3 3 3 2 2 2 2 3 3 3 3 4
2 2 2 2 2 2 2 3 3 3 4 4 4 3 3 2 2 4 6 6 4 4 4 3 2 5 5 4 3 2 2 3 3 3 2 2 2 2 1 2 2 2 3
1 1 1 1 1 1 2 2 3 3 4 3 3 3 2 2 2 4 5 5 4 3 3 2 3 5 5 4 4 4 4 3 3 3 3 2 2 2 2 2 2 2 2
1 1 1 1 1 0 1 1 2 2 3 3 3 2 2 2 2 2 3 3 4 4 2 3 5 6 5 4 4 4 3 3 3 3 3 3 3 3 3 2 2 2 2
1 1 1 1 1 0 0 1 1 1 1 2 2 3 2 2 1 1 2 2 2 2 2 2 3 3 3 3 3 3 2 2 3 3 3 3 3 3 2 2 2 2 2
2 1 1 1 1 1 1 2 5 3 4 3 1 1 0 2 2 2 1 1 2 3 3 3 3 4 4 4 3 3 3 3 3 3 3 3 3 3 3 2 2 2 2
1 1 1 1 2 1 1 1 1 2 3 3 2 2 2 2 3 2 2 2 3 4 4 4 4 4 4 4 3 3 3 3 3 3 3 3 3 3 3 2 3 3 3
2 2 2 2 2 1 1 1 1 1 1 1 1 3 3 3 4 4 4 3 3 3 3 3 3 3 4 4 3 3 3 3 3 3 3 3 3 3 3 3 3 3 3
2 2 1 1 1 2 2 2 1 1 1 1 0 2 3 4 5 5 5 3 3 3 3 3 3 3 3 4 3 3 3 3 3 3 3 3 3 4 4 4 4 4 4
1 0 1 1 2 2 2 2 2 2 1 1 1 0 1 1 1 2 3 3 3 3 3 3 3 3 3 3 3 3 4 4 4 4 4 4 4 4 4 4 4 4 4
1 2 2 2 2 2 2 2 2 2 1 1 1 1 2 2 2 2 2 2 2 3 3 3 3 4 3 3 3 4 5 4 4 4 4 4 4 5 5 5 5 5 4
2 2 3 2 2 2 2 2 2 2 2 2 1 2 3 3 2 2 2 3 3 3 3 3 3 3 3 3 3 3 4 4 4 4 5 5 5 5 5 5 4 4 4
2 2 2 2 2 2 2 2 2 2 3 3 2 2 2 2 2 3 3 3 3 3 3 2 3 3 3 3 3 3 4 3 4 4 5 5 5 5 5 5 6 6 5
2 2 2 2 2 2 2 2 3 3 3 3 3 3 3 3 3 3 3 3 3 3 3 3 3 3 4 3 3 3 2 3 4 5 6 6 5 5 5 5 6 7 7
2 2 2 2 2 2 2 3 3 3 3 3 3 3 3 3 3 3 3 3 3 3 3 3 3 3 4 4 3 1 1 2 4 5 6 6 6 7 6 6 6 6 7
2 2 2 2 2 3 3 3 3 3 3 3 3 3 4 4 3 3 3 3 3 3 3 3 3 3 3 4 3 1 1 2 4 6 7 6 6 6 7 7 8 8 7
Wind_Direction
212 214 222 222 222 224 226 230 229 230 229 229 229 228 228 228 228 230 237 237 239 243 246 243 244 252 247 243 238 238 241 243 251 261 258 242 243 261 259 263 259 251 226
219 219 222 225 226 226 228 230 230 230 231 229 230 230 232 231 229 231 235 235 238 242 245 247 248 245 242 248 244 243 242 245 250 259 260 252 244 247 252 260 260 254 258
221 223 223 226 227 229 232 232 231 231 233 234 231 232 235 234 231 231 235 237 240 243 244 243 244 245 245 244 244 243 243 243 247 254 257 258 258 254 259 259 259 257 258
227 228 230 233 234 234 235 236 235 233 232 233 234 233 234 234 233 232 235 239 241 242 242 242 242 240 240 240 241 241 243 247 245 249 255 254 255 253 254 257 254 245 258
234 238 239 242 241 239 235 235 236 236 236 234 234 234 234 234 235 232 234 237 240 242 240 243 246 248 257 254 254 246 244 246 246 247 250 254 250 246 251 258 263 264 251
240 247 249 249 246 243 240 236 235 236 238 236 233 233 235 237 226 226 233 235 237 239 239 240 243 241 242 236 249 254 252 247 250 253 252 253 251 250 252 256 258 261 260
246 252 255 256 255 252 247 240 238 236 234 235 236 232 232 233 212 215 222 230 235 236 237 239 247 245 240 251 234 228 237 241 249 257 259 261 260 254 250 250 252 265 270
250 256 258 256 255 251 244 242 240 237 233 230 232 231 230 223 194 201 209 223 233 233 234 233 238 244 244 241 246 241 242 244 242 246 256 263 265 258 246 248 254 253 251
250 252 254 252 251 249 243 241 240 238 233 228 225 229 230 215 174 184 198 221 221 229 230 229 226 228 211 229 228 233 240 244 228 193 250 273 300 235 248 252 243 241 248
260 257 254 249 246 246 247 243 240 234 231 229 223 225 219 214 175 179 200 219 219 224 221 221 208 208 203 220 220 221 232 241 240 222 193 199 214 199 199 229 246 252 257
279 263 258 253 246 244 245 238 232 231 226 221 216 221 216 213 186 185 202 220 221 222 223 220 202 160 183 219 232 227 232 238 227 228 221 208 204 222 220 220 249 255 262
282 257 252 258 262 243 228 230 226 219 212 212 207 217 223 213 201 190 194 215 234 222 224 223 191 161 178 204 214 196 220 228 220 222 219 227 234 244 250 251 251 275 282
288 252 238 233 247 226 205 208 208 211 217 211 209 208 210 209 185 171 179 200 215 221 229 178 177 178 178 189 194 202 213 221 221 224 224 232 242 238 229 218 209 214 246
246 243 228 205 211 221 250 243 222 210 215 208 212 228 222 206 196 187 183 181 182 190 185 166 179 191 193 200 201 207 220 237 242 238 233 229 230 225 221 216 215 228 234
242 234 219 200 177 159 243 352 293 251 249 239 230 231 232 216 134 41 212 210 205 180 177 209 220 214 210 213 218 221 219 222 229 239 238 229 226 221 222 222 234 247 259
233 228 210 196 183 187 138 86 51 36 70 87 62 252 246 110 111 98 133 203 205 199 192 208 221 221 219 220 222 222 220 224 234 236 234 233 229 226 226 229 240 251 261
238 238 230 198 186 193 159 143 104 73 87 93 114 131 159 137 131 151 182 197 213 210 207 216 222 226 226 228 229 229 230 231 236 235 230 231 232 232 235 238 241 244 254
220 211 227 208 196 196 177 162 162 164 147 97 124 151 162 164 170 183 188 185 203 201 213 221 225 226 231 231 230 232 235 233 229 230 230 233 233 235 236 240 243 249 252
233 222 211 218 206 197 192 180 177 179 183 172 141 131 149 164 176 194 196 211 218 227 228 227 230 228 231 230 232 235 234 232 233 232 229 235 239 239 243 244 247 241 253
218 115 224 218 212 201 200 203 203 202 204 198 213 219 138 190 223 206 215 235 237 236 237 236 238 240 238 239 240 242 239 231 226 228 231 236 236 238 241 244 253 251 248
215 181 183 224 222 214 219 223 219 217 223 230 226 177 185 230 241 238 246 255 256 255 252 249 245 242 235 232 235 239 242 242 238 237 237 237 237 237 241 243 246 253 258
223 220 217 225 227 226 228 231 223 220 225 237 243 180 185 238 243 240 244 254 257 251 245 245 249 249 246 243 241 244 245 247 245 240 237 236 234 236 238 242 246 253 258
227 227 227 229 226 209 223 237 239 232 236 239 246 245 229 244 254 254 252 254 257 259 254 248 251 247 237 235 232 235 244 252 253 251 245 239 237 239 240 238 240 248 251
220 225 227 224 225 224 230 237 236 236 242 245 248 251 244 242 251 254 255 253 250 250 247 243 244 247 247 242 233 231 241 266 261 248 244 241 241 242 242 245 248 249 249
218 217 226 234 236 240 246 247 246 251 255 256 256 259 254 248 251 253 253 250 251 248 247 246 243 241 244 246 247 255 322 289 281 272 247 244 245 247 251 251 249 252 251
212 216 237 246 250 253 253 252 251 254 260 265 269 270 266 257 253 252 249 245 247 248 249 247 252 252 252 248 246 272 261 260 270 274 261 251 253 254 256 253 253 252 252
Height
1519 1521 1522 1524 1525 1526 1527 1528 1529 1530 1531 1532 1533 1534 1534 1535 1535 1535 1536 1536 1537 1537 1537 1537 1537 1538 1538 1538 1538 1538 1538 1538 1538 1537 1538 1537 1536 1535 1535 1534 1533 1532 1531
1516 1517 1519 1520 1521 1522 1523 1524 1525 1526 1527 1528 1529 1530 1530 1531 1531 1531 1532 1532 1533 1533 1534 1534 1534 1535 1534 1535 1535 1535 1535 1534 1534 1534 1534 1533 1533 1532 1531 1530 1530 1529 1528
1513 1514 1515 1516 1517 1518 1519 1520 1521 1522 1523 1524 1525 1525 1526 1526 1527 1527 1528 1528 1529 1529 1529 1530 1530 1530 1530 1530 1530 1531 1531 1531 1530 1530 1530 1529 1529 1528 1527 1526 1526 1525 1524
1510 1511 1511 1512 1513 1513 1514 1515 1516 1517 1518 1519 1520 1520 1521 1522 1522 1522 1523 1524 1524 1525 1525 1526 1526 1526 1525 1525 1526 1526 1526 1526 1526 1526 1526 1525 1525 1524 1523 1523 1522 1522 1521
1506 1507 1507 1508 1508 1509 1510 1511 1512 1513 1513 1514 1515 1515 1516 1517 1517 1518 1518 1519 1519 1520 1520 1521 1522 1522 1522 1522 1522 1522 1522 1522 1522 1522 1521 1521 1520 1520 1520 1519 1519 1518 1517
1502 1503 1503 1504 1504 1505 1505 1506 1507 1508 1509 1509 1510 1510 1511 1512 1512 1513 1513 1514 1514 1515 1516 1516 1517 1517 1517 1517 1517 1517 1517 1517 1517 1517 1517 1516 1516 1516 1515 1515 1515 1515 1514
1499 1499 1499 1499 1500 1500 1501 1502 1502 1503 1504 1504 1505 1506 1506 1506 1507 1508 1508 1509 1510 1510 1511 1512 1512 1513 1513 1513 1512 1512 1512 1512 1512 1513 1512 1512 1511 1511 1510 1510 1510 1511 1510
1495 1495 1496 1496 1496 1496 1497 1497 1498 1498 1499 1499 1500 1501 1501 1502 1502 1503 1504 1505 1505 1506 1507 1507 1508 1508 1509 1508 1508 1508 1508 1508 1508 1508 1508 1507 1507 1507 1506 1507 1506 1506 1506
1492 1492 1492 1492 1492 1493 1493 1493 1494 1494 1494 1495 1496 1496 1497 1498 1498 1499 1500 1500 1501 1502 1503 1503 1504 1504 1504 1504 1504 1504 1504 1504 1504 1504 1503 1503 1503 1503 1503 1503 1503 1504 1504
1489 1489 1489 1489 1489 1489 1489 1490 1490 1490 1491 1492 1492 1493 1493 1494 1495 1496 1496 1497 1497 1498 1499 1499 1500 1500 1501 1501 1501 1501 1500 1501 1501 1500 1499 1499 1499 1499 1499 1500 1500 1501 1501
1486 1485 1485 1485 1485 1485 1485 1486 1486 1487 1487 1488 1488 1489 1490 1491 1492 1492 1493 1493 1494 1495 1496 1496 1497 1497 1497 1498 1498 1497 1497 1498 1497 1497 1496 1496 1496 1496 1496 1497 1497 1498 1499
1482 1482 1482 1482 1482 1482 1482 1482 1483 1483 1484 1484 1485 1486 1487 1488 1489 1489 1490 1490 1491 1491 1493 1493 1494 1494 1494 1495 1495 1494 1494 1495 1495 1494 1494 1494 1494 1494 1495 1495 1494 1494 1495
1480 1480 1480 1479 1479 1479 1479 1479 1480 1481 1482 1482 1483 1483 1484 1485 1486 1486 1487 1488 1487 1488 1490 1490 1491 1492 1492 1492 1492 1492 1492 1492 1493 1493 1492 1493 1493 1493 1493 1492 1492 1492 1492
1478 1478 1478 1477 1477 1477 1477 1478 1478 1479 1480 1480 1481 1482 1482 1483 1484 1484 1484 1485 1485 1486 1486 1487 1488 1489 1489 1489 1490 1490 1490 1490 1490 1491 1491 1491 1491 1491 1491 1491 1491 1491 1491
1477 1476 1476 1476 1476 1476 1476 1477 1477 1477 1478 1478 1479 1479 1480 1481 1481 1482 1482 1482 1483 1483 1483 1484 1486 1486 1486 1486 1487 1488 1487 1488 1488 1488 1489 1489 1489 1490 1490 1490 1489 1489 1489
1475 1475 1475 1475 1475 1475 1475 1475 1475 1476 1476 1476 1477 1477 1478 1478 1479 1479 1479 1480 1481 1481 1481 1482 1483 1483 1483 1484 1484 1485 1485 1485 1486 1486 1486 1487 1487 1488 1488 1488 1488 1487 1487
1473 1473 1474 1474 1473 1474 1474 1474 1474 1475 1475 1475 1475 1475 1476 1476 1476 1477 1477 1478 1478 1479 1479 1480 1480 1481 1481 1481 1482 1482 1483 1483 1483 1484 1484 1484 1485 1486 1486 1486 1486 1486 1486
1472 1472 1472 1472 1472 1472 1473 1473 1473 1473 1473 1473 1474 1474 1474 1474 1475 1475 1475 1476 1476 1477 1477 1477 1478 1478 1479 1479 1479 1480 1480 1481 1481 1481 1482 1482 1483 1483 1483 1484 1484 1484 1483
1471 1471 1471 1471 1471 1471 1472 1471 1472 1472 1472 1472 1472 1473 1473 1473 1473 1474 1474 1474 1474 1475 1475 1475 1476 1476 1476 1476 1477 1477 1478 1478 1478 1478 1479 1479 1480 1481 1481 1481 1481 1481 1481
1469 1469 1469 1470 1470 1470 1470 1470 1470 1471 1471 1470 1471 1472 1472 1473 1473 1473 1473 1473 1473 1474 1474 1474 1474 1474 1474 1473 1474 1475 1475 1475 1475 1475 1476 1477 1477 1478 1478 1478 1479 1479 1478
1469 1469 1468 1469 1469 1469 1469 1469 1469 1469 1470 1470 1471 1471 1471 1472 1472 1472 1472 1472 1472 1472 1472 1472 1472 1471 1471 1471 1472 1472 1472 1473 1473 1473 1473 1474 1475 1475 1475 1475 1476 1476 1476
1467 1467 1468 1468 1468 1468 1467 1468 1468 1468 1468 1469 1469 1470 1470 1470 1470 1470 1470 1470 1470 1470 1469 1469 1469 1469 1469 1469 1469 1469 1470 1470 1470 1470 1470 1471 1471 1472 1472 1473 1472 1473 1473
1466 1466 1466 1466 1466 1466 1466 1466 1467 1467 1467 1467 1468 1468 1469 1469 1468 1468 1468 1468 1467 1467 1467 1467 1466 1466 1466 1466 1466 1466 1466 1467 1467 1467 1467 1468 1468 1468 1469 1469 1469 1470 1470
1464 1465 1465 1465 1465 1465 1465 1465 1465 1465 1465 1465 1466 1466 1466 1466 1465 1465 1465 1465 1464 1464 1464 1464 1464 1463 1463 1463 1463 1464 1463 1463 1463 1464 1464 1464 1465 1465 1465 1465 1466 1466 1466
1463 1463 1463 1463 1463 1463 1463 1463 1463 1463 1463 1463 1463 1463 1463 1463 1463 1463 1462 1462 1462 1461 1461 1461 1461 1460 1460 1460 1460 1460 1460 1460 1460 1460 1461 1461 1461 1461 1462 1462 1462 1462 1462
1461 1461 1461 1462 1461 1461 1461 1461 1461 1461 1461 1460 1460 1460 1460 1460 1460 1459 1459 1459 1458 1458 1458 1457 1457 1457 1457 1457 1457 1456 1456 1456 1456 1457 1457 1457 1458 1458 1458 1458 1458 1458 1458